Theta_e
360 359 357 345 316 313 308 313 320 320 321 327 330 326 324 324 320 313 335 342 345 347 351 354 361 361 360 361 361 361 361 360 361 360 361 361 362 361 361 360 360 360 360 360 360 360 359 359 359
358 356 352 337 308 303 307 318 315 318 325 328 328 326 324 321 331 331 335 343 348 349 353 354 361 362 360 360 360 360 360 361 360 360 361 361 361 361 361 360 360 359 360 360 361 361 358 358 359
357 357 335 320 309 304 306 318 317 321 325 325 323 328 325 324 332 333 340 345 348 350 355 355 363 363 360 360 361 360 361 360 361 361 361 361 361 361 359 359 359 359 359 360 361 360 358 358 357
352 344 338 312 309 313 315 317 319 320 323 326 326 320 328 335 334 338 344 346 347 350 354 360 362 361 362 362 363 363 361 360 360 360 360 360 361 361 359 360 359 359 359 361 361 359 358 358 357
347 338 315 311 312 316 320 321 321 319 320 322 324 320 324 333 340 342 343 346 346 347 354 357 364 362 364 363 362 362 362 362 361 361 360 359 361 360 359 359 360 360 360 361 360 360 359 358 358
335 333 311 308 313 319 322 323 322 320 321 323 321 322 324 336 337 340 344 344 348 348 355 358 362 363 364 362 362 361 360 360 360 361 361 360 359 360 360 359 360 360 360 360 360 359 358 358 356
328 322 311 313 315 318 321 325 322 318 319 320 325 316 323 330 338 341 344 344 349 349 354 356 356 359 363 363 362 361 362 361 361 361 360 359 360 360 360 359 360 360 361 360 359 358 358 356 355
336 327 315 315 315 315 325 328 326 320 319 327 325 315 316 326 339 341 342 344 349 349 353 353 355 355 356 357 363 362 362 361 360 360 360 360 360 360 360 360 360 360 360 360 360 357 358 356 355
344 318 311 313 317 320 328 325 325 325 322 324 325 322 324 331 335 336 338 346 348 350 351 353 353 354 354 355 357 361 362 362 361 361 361 360 353 354 358 360 360 358 359 359 359 360 358 356 354
329 315 316 324 322 322 327 327 323 321 319 321 322 325 329 331 331 332 334 339 344 346 348 353 353 353 353 357 355 354 354 355 353 354 354 354 352 352 354 356 361 360 360 359 361 359 357 355 353
326 320 326 328 329 329 327 327 328 318 315 318 320 321 326 328 330 332 335 339 342 346 348 352 352 352 352 352 352 351 351 352 352 351 352 350 350 349 351 351 351 352 357 355 358 356 352 351 350
321 328 328 330 330 329 326 329 325 323 322 324 325 324 325 327 329 332 334 338 340 343 346 349 351 351 351 351 351 349 349 350 349 350 349 346 346 347 348 349 351 349 352 352 353 351 350 350 350
322 326 330 330 329 329 331 327 326 323 328 327 326 325 324 327 329 333 336 338 340 340 343 346 349 349 350 349 349 348 348 349 349 349 349 349 345 346 348 349 350 348 349 351 351 349 349 349 349
325 329 325 326 327 328 324 326 327 327 328 326 324 323 325 327 329 331 335 336 337 341 342 345 346 349 349 349 348 347 348 348 349 348 348 351 349 347 347 348 348 348 349 350 351 348 346 345 348
328 320 321 323 328 327 326 319 321 329 327 323 322 324 327 329 332 333 335 336 337 339 341 343 346 348 347 348 348 347 346 350 349 348 349 350 350 347 347 348 347 347 348 348 348 345 345 346 346
320 319 309 319 326 328 323 308 324 326 325 322 323 325 327 328 330 335 337 337 338 339 339 342 346 346 347 347 348 348 346 348 349 349 349 351 351 348 347 346 346 347 347 346 347 345 343 343 342
312 306 309 314 324 323 319 315 325 326 324 322 323 324 327 327 329 332 338 339 339 339 340 340 344 344 345 346 346 347 346 346 348 350 349 350 351 350 348 346 346 348 347 345 344 343 343 343 344
302 306 309 310 317 322 317 317 321 324 324 322 323 324 325 326 328 332 334 338 339 339 338 340 342 341 343 345 346 347 347 347 349 349 348 348 348 351 348 347 346 348 346 344 344 345 346 346 346
305 307 309 312 319 319 317 315 320 323 322 322 322 323 323 325 329 332 334 336 338 339 335 338 339 340 342 342 343 344 343 347 348 348 350 348 350 352 350 350 349 348 346 346 347 348 346 347 348
305 305 306 312 318 316 316 315 318 322 322 322 322 322 324 325 326 329 332 334 336 335 336 337 339 342 342 344 345 347 345 346 346 347 348 351 350 353 350 350 348 349 347 347 349 348 345 346 347
303 303 305 308 314 315 312 308 313 321 324 324 324 324 325 325 325 327 328 331 334 335 335 337 338 342 344 345 345 343 347 347 346 347 347 352 352 353 352 351 350 349 347 347 350 348 345 342 344
296 305 309 310 306 301 309 298 306 313 318 322 323 323 324 325 327 328 328 329 331 333 337 337 339 342 345 345 345 342 340 340 344 346 347 347 352 353 354 352 352 351 350 348 349 349 347 345 340
299 308 309 309 304 303 304 299 302 310 312 318 321 323 324 326 327 327 328 329 330 333 336 337 339 341 344 345 346 343 340 342 345 346 346 344 350 353 354 353 351 349 350 349 348 347 346 345 342
301 298 295 294 296 293 298 296 293 299 310 316 321 323 324 326 327 329 330 329 330 333 336 338 339 340 343 345 345 343 341 341 342 343 343 343 347 350 353 353 351 351 350 348 348 346 343 341 337
296 290 286 287 287 289 290 292 295 300 306 311 317 323 324 326 327 327 327 327 330 333 335 337 339 339 342 344 345 344 343 342 343 343 343 342 344 347 350 351 350 350 347 348 345 341 338 335 333
294 289 287 284 283 287 287 288 296 307 308 318 321 324 325 326 327 328 328 329 331 334 335 338 339 339 342 344 344 345 343 343 344 345 344 343 344 347 351 351 350 348 347 345 342 337 334 331 329
293 290 290 285 281 285 287 292 301 303 306 314 320 322 324 326 326 327 329 330 333 335 336 338 340 340 342 343 344 344 343 343 344 346 346 345 344 346 349 350 348 347 346 342 338 334 332 328 324
297 295 289 287 284 283 287 289 293 300 304 307 311 320 324 325 326 326 328 331 334 337 338 340 341 340 342 344 345 345 344 344 346 346 345 345 344 345 347 348 347 345 343 340 337 333 329 326 321
296 294 288 287 284 283 282 291 297 303 307 306 314 320 322 323 325 326 329 331 335 338 340 340 341 340 341 344 345 345 345 345 346 346 346 346 345 344 345 346 346 343 340 336 333 331 329 324 322
296 293 291 290 289 283 286 289 310 316 318 318 324 327 331 332 325 327 329 330 334 337 339 340 342 341 341 344 346 346 346 346 346 346 347 347 345 346 346 346 344 342 339 335 331 328 327 323 321
Wind_Speed
10 5 2 1 3 3 2 3 3 4 7 0 8 3 5 4 2 2 3 4 8 6 5 9 14 17 17 17 16 15 16 15 14 14 14 13 14 10 9 8 9 7 7 6 8 10 10 11 12
4 4 2 1 5 4 2 2 4 2 5 9 7 6 4 3 4 6 4 4 6 5 5 8 14 15 16 17 15 16 15 15 13 12 14 12 12 9 8 7 6 5 7 7 10 12 12 11 11
6 5 1 2 3 3 2 3 4 3 6 6 6 7 3 3 4 8 8 7 5 5 5 9 15 15 14 14 15 15 14 13 12 11 11 11 11 9 7 6 6 5 6 9 10 11 10 10 9
3 1 0 4 3 2 3 5 6 6 1 4 10 9 6 3 6 5 10 9 5 5 5 10 14 15 15 13 12 14 13 12 10 9 9 9 9 9 7 7 7 5 5 9 10 9 10 9 8
1 1 3 3 4 2 4 5 5 4 4 4 3 5 6 3 13 10 7 8 6 5 5 7 12 14 13 12 11 12 11 11 10 9 8 7 7 7 7 7 7 7 6 8 10 10 9 9 7
1 1 5 2 3 2 4 6 6 2 3 3 6 7 6 10 17 15 9 8 8 7 5 6 12 12 12 12 11 11 10 10 10 9 8 7 6 5 5 6 6 6 7 7 8 9 8 7 7
2 1 3 3 1 1 4 7 5 5 6 1 10 6 4 10 14 14 12 8 7 7 5 4 5 9 12 12 11 11 10 10 10 10 8 6 5 6 6 5 5 5 7 7 6 6 6 4 4
1 2 3 2 3 4 7 6 8 5 4 10 2 5 6 6 14 10 8 7 6 6 5 5 5 4 5 5 9 10 10 10 9 9 8 6 6 6 6 6 5 5 5 6 7 5 6 4 3
1 3 1 2 5 3 8 4 3 7 10 2 4 6 7 15 13 8 7 4 4 4 5 5 5 5 5 4 4 9 10 10 9 8 8 6 3 1 3 6 5 5 5 6 5 6 6 5 2
2 4 2 2 5 5 8 5 7 5 7 3 5 7 15 15 13 11 7 6 6 6 4 4 4 4 4 3 2 3 3 2 3 3 2 3 2 2 3 3 7 7 6 5 6 5 4 4 2
2 2 3 4 3 8 9 4 3 11 4 8 13 11 17 15 11 12 10 9 10 7 5 6 5 4 5 3 2 1 1 1 1 3 3 3 2 1 1 0 2 1 2 2 2 3 2 2 1
3 2 3 0 2 6 9 8 6 9 6 10 10 17 15 16 15 14 13 9 8 8 8 5 5 5 5 3 3 3 2 2 2 3 3 3 2 2 2 2 2 1 1 2 1 1 2 1 0
2 3 2 5 3 5 7 8 8 12 1 10 14 16 18 13 14 12 11 10 9 9 8 8 8 7 5 5 3 3 3 2 3 3 4 3 3 3 2 2 2 2 2 2 2 2 3 2 3
3 1 3 5 4 3 6 4 9 6 11 13 16 17 16 16 14 11 10 10 11 11 11 9 10 9 6 5 5 4 3 3 3 3 4 5 4 4 3 2 3 2 2 2 1 1 1 1 1
2 3 2 2 3 2 4 3 6 2 12 15 17 16 14 14 13 15 13 12 12 10 9 11 11 7 7 7 5 4 4 4 4 4 5 5 4 4 4 3 2 2 2 2 2 2 1 1 1
3 4 6 2 2 1 3 6 4 7 15 13 15 14 14 13 15 13 11 12 10 9 11 10 11 10 9 8 5 4 4 4 3 3 3 5 4 3 4 3 3 3 3 2 2 3 2 2 3
6 3 1 7 7 3 5 6 7 10 12 14 14 14 13 12 11 12 14 13 13 13 11 11 10 10 10 6 4 4 5 4 4 3 2 4 3 4 3 3 3 3 2 3 2 2 2 2 3
5 4 2 6 3 4 4 9 5 12 14 16 16 14 13 14 18 16 15 14 11 10 8 10 9 8 7 4 3 2 3 3 2 3 3 4 4 5 3 3 3 4 3 3 2 3 2 2 2
1 2 7 9 6 3 8 6 9 12 11 12 13 14 14 17 17 15 14 12 9 8 10 12 11 8 8 4 4 2 3 3 2 3 5 5 5 5 4 3 3 4 4 3 3 2 2 2 1
3 4 8 10 6 4 2 12 4 12 16 18 18 17 17 14 11 14 13 12 13 12 12 12 13 11 9 7 3 3 3 2 1 2 4 4 5 5 5 4 3 4 3 3 3 3 1 1 1
4 5 5 8 2 4 3 9 4 3 7 12 18 20 18 20 18 15 14 15 13 13 15 15 15 14 11 8 6 3 3 3 2 3 3 4 5 5 5 5 4 4 4 4 3 4 4 2 1
4 7 9 2 2 5 3 8 8 2 8 9 18 19 19 19 16 14 14 15 15 16 11 13 12 14 12 12 10 6 5 4 4 4 3 4 5 5 5 4 4 4 3 4 3 4 3 3 3
12 2 1 3 2 4 1 2 10 4 6 10 12 19 20 20 19 18 17 18 14 14 13 13 12 11 11 14 12 9 5 3 2 2 5 4 3 4 5 5 5 4 3 3 4 4 3 2 2
1 5 6 6 4 2 5 5 8 4 6 7 5 15 19 18 18 16 14 12 14 11 11 11 12 13 12 13 12 13 11 7 4 3 4 3 2 3 5 5 5 4 4 4 3 4 4 3 2
7 7 3 4 5 7 3 5 12 5 9 8 12 13 17 18 16 14 14 14 12 14 13 12 13 12 12 13 13 12 11 10 9 6 5 5 4 3 6 6 5 4 4 5 5 4 4 3 2
1 7 8 7 4 5 4 6 6 4 9 8 5 8 12 17 14 15 15 16 15 16 15 15 15 13 12 13 13 11 9 7 6 7 5 6 6 6 7 7 6 6 6 6 5 3 4 4 3
2 1 3 8 4 4 5 8 10 6 8 10 6 4 10 14 15 17 15 16 15 16 18 17 15 14 14 15 11 11 9 9 9 9 8 6 5 5 7 7 7 7 7 7 7 4 4 4 3
6 2 3 5 4 1 5 5 7 15 21 12 9 3 2 5 7 7 12 14 15 14 14 15 15 17 16 15 12 11 12 11 9 8 10 9 8 8 9 8 8 8 7 7 7 5 5 5 2
6 5 6 6 3 6 2 7 4 7 10 10 7 5 1 6 8 7 8 6 6 8 12 12 12 13 12 13 12 11 11 11 10 10 10 11 9 10 10 10 10 9 9 7 7 7 7 6 4
2 2 4 6 2 1 3 8 1 2 7 7 7 8 7 5 4 10 9 9 10 10 9 10 10 11 13 12 12 13 11 10 11 11 11 9 10 10 11 10 11 11 10 10 9 9 8 8 7
Wind_Direction
176 183 170 274 72 71 40 26 52 104 140 234 129 134 135 49 27 166 332 140 120 123 149 132 133 130 128 122 123 122 120 122 124 128 125 125 121 127 132 123 110 111 116 109 98 113 116 115 119
152 170 230 112 76 58 349 64 109 98 119 98 60 124 98 86 85 104 119 105 117 137 140 137 140 135 135 131 134 127 128 130 137 137 136 138 130 134 129 119 113 116 117 116 109 108 111 113 121
161 236 101 74 96 74 76 104 129 88 146 131 133 63 78 84 97 144 127 111 120 121 126 144 143 141 139 136 139 136 140 142 149 145 140 139 136 138 126 111 112 129 124 122 112 109 112 114 117
178 318 247 75 38 94 108 129 126 136 105 54 114 77 79 122 133 123 128 133 136 140 150 154 151 148 142 146 144 143 147 153 159 158 150 145 143 142 132 121 118 127 115 110 112 112 113 111 113
31 144 49 45 15 48 81 110 144 138 132 107 116 103 90 55 124 109 132 143 134 139 155 153 158 150 151 141 150 146 148 162 168 163 161 152 146 147 140 128 130 135 123 117 122 127 123 120 123
60 248 59 24 3 46 95 134 143 94 70 137 85 98 121 130 140 162 168 157 149 153 155 168 164 160 155 153 164 152 153 167 165 163 168 159 152 154 151 146 151 148 128 122 121 122 131 133 137
167 75 144 124 199 279 159 149 152 136 117 124 133 95 108 148 165 158 166 155 163 158 135 135 154 173 164 167 173 159 164 167 166 163 165 171 160 172 168 162 150 152 146 135 125 112 110 106 121
181 109 86 142 195 273 148 153 142 125 58 124 131 127 168 175 160 147 142 144 145 136 135 154 161 158 164 165 172 174 174 172 179 173 170 177 179 180 175 153 171 158 147 146 140 127 112 104 76
265 56 61 205 150 222 132 139 108 93 127 192 158 140 149 138 130 129 128 114 126 154 163 172 173 161 160 163 204 186 181 184 180 181 180 186 91 8 173 160 194 164 170 160 149 131 130 127 124
223 84 311 315 187 170 155 138 133 107 145 230 166 77 121 140 146 153 158 162 171 178 177 183 171 162 160 168 200 142 215 162 152 162 143 128 132 130 157 170 180 181 167 172 162 139 141 118 55
320 129 195 349 65 126 150 117 133 120 190 212 175 151 148 155 163 167 173 182 192 186 181 183 181 180 172 176 159 177 213 122 192 163 157 138 117 31 70 38 14 47 194 73 108 108 94 126 103
357 317 278 353 30 128 145 148 169 173 197 211 155 157 160 167 174 177 183 185 175 180 190 177 180 183 186 164 199 182 190 185 201 203 175 148 147 201 203 187 165 173 65 103 132 126 128 125 287
135 303 46 303 137 122 151 166 178 205 156 146 140 159 167 178 181 185 188 181 175 181 180 188 183 195 188 186 196 190 205 191 211 203 200 171 173 203 214 239 185 179 138 195 200 166 164 201 231
42 290 273 285 254 167 136 147 155 208 142 144 152 171 171 174 189 182 188 187 181 191 189 184 197 200 178 190 193 204 187 199 211 218 210 201 183 198 191 210 198 170 190 200 219 38 24 272 88
342 345 355 225 308 296 117 90 230 171 152 154 165 170 171 174 173 196 193 195 192 192 180 187 197 193 188 190 196 196 193 183 212 220 214 224 202 195 170 176 160 204 190 166 115 91 121 198 321
36 17 21 296 323 299 80 253 240 152 146 164 169 173 174 181 186 196 195 206 195 189 184 187 192 190 193 199 191 190 198 199 214 226 221 219 174 182 167 161 176 175 166 131 135 164 166 197 217
11 277 155 308 205 259 185 260 190 156 157 162 175 178 187 181 200 202 204 204 201 192 188 190 190 188 192 193 176 195 204 203 212 185 181 187 152 171 169 171 176 165 156 161 185 180 191 212 242
268 311 213 241 247 205 261 267 166 175 167 180 175 180 190 196 205 207 209 203 200 193 178 184 186 174 170 157 154 170 199 209 191 180 193 174 167 162 164 185 176 163 154 170 192 198 198 238 244
322 221 272 275 207 229 232 268 200 179 187 186 178 190 190 204 206 205 213 212 190 178 172 183 178 171 158 158 157 164 191 182 193 187 187 177 179 168 163 176 171 154 170 193 191 176 197 269 284
188 259 255 283 200 192 305 254 215 185 211 189 181 190 203 207 194 208 209 206 198 191 190 187 191 174 181 181 159 154 155 203 127 153 212 202 175 163 170 163 177 166 158 195 193 176 161 209 183
225 206 237 210 28 223 11 307 281 212 209 190 195 197 198 199 200 202 203 205 202 195 191 190 190 180 179 169 132 90 92 82 135 198 191 198 179 167 165 163 170 180 181 187 199 179 175 180 165
282 198 251 245 60 237 78 283 313 326 251 210 194 194 199 200 206 207 204 203 204 210 189 190 186 181 175 160 170 161 174 165 194 184 160 180 173 169 168 168 176 189 189 196 188 170 172 158 177
235 122 106 176 138 21 215 43 267 347 295 252 206 197 198 200 196 197 200 206 205 198 189 191 181 178 172 173 177 178 173 175 164 159 164 151 201 167 163 186 177 193 190 189 176 158 169 192 147
4 94 56 52 78 58 243 139 287 260 249 289 198 201 193 197 200 201 200 191 199 183 177 177 182 184 176 178 178 182 184 170 174 168 174 163 171 187 178 175 180 184 184 178 160 156 169 174 128
73 58 349 358 10 216 34 70 245 260 285 249 264 203 191 195 196 191 185 182 185 181 178 178 178 189 181 182 184 186 187 177 188 183 172 166 171 174 186 182 178 174 181 167 151 155 149 155 150
107 151 156 184 200 258 153 232 249 226 319 326 285 179 181 189 193 197 191 187 185 182 178 180 184 184 185 186 194 191 175 183 186 181 175 189 192 190 176 180 168 172 174 161 156 145 151 153 154
313 30 180 101 11 57 294 297 312 315 359 354 357 128 178 187 191 194 195 188 182 181 182 182 183 187 186 193 191 188 178 178 188 186 183 184 181 182 178 176 173 184 171 163 155 155 155 153 158
85 166 23 360 129 172 307 294 254 334 321 330 320 257 159 216 226 209 193 190 190 183 177 174 183 190 189 190 192 193 187 189 186 181 190 190 191 176 172 178 181 175 169 162 154 155 154 157 167
355 14 52 115 93 150 167 266 223 287 303 321 350 26 35 215 204 201 202 185 194 176 171 177 181 192 195 192 194 191 192 189 182 194 201 197 184 181 182 182 178 175 171 164 158 160 160 162 164
345 60 115 109 249 98 142 270 255 355 339 345 353 7 357 351 223 185 174 155 143 151 160 186 197 196 193 193 190 196 192 184 190 198 203 197 195 185 185 177 179 178 173 169 171 168 168 167 175